Location: Albany
(35.0170°S, 117.8920°E)
Time: 02:04:08
(UTC+08:00)

Explorer 7 - Pass Details

Date: 22 January 2021
Orbit: 484 x 677 km, 50.3° (Epoch: 01 March)

Event Time Altitude Azimuth Distance (km) Brightness Sun altitude
Rises 19:39:37 0° 243° (WSW) 2,981 13.9 -4.0°
Reaches altitude 10° 19:43:28 10° 212° (SSW) 2,030 10.8 -4.7°
Maximum altitude 19:45:22 12° 188° (S) 1,862 10.1 -5.1°
Drops below altitude 10° 19:47:13 10° 164° (SSE) 1,982 9.8 -5.4°
Sets 19:50:53 0° 133° (SE) 2,832 10.3 -6.1°
